Location: Binningen
(47.7924°N, 8.7261°E)
Time: 08:22:43
(UTC+00:00)

Cosmos 44 - Pass Details

Date: 17 May 2021
Orbit: 571 x 791 km, 65.1° (Epoch: 20 June)

Event Time Altitude Azimuth Distance (km) Brightness Sun altitude
Rises 20:21:58 0° 321° (NW) 3,295 9.0 -11.6°
Reaches altitude 10° 20:24:26 10° 321° (NW) 2,356 7.6 -11.9°
Maximum altitude 20:29:53 81° 235° (SW) 786 3.5 -12.5°
Enters shadow 20:33:48 18° 149° (SSE) 1,774 4.8 -12.9°
